星链-32900 (STARLINK-32900)

导读

STARLINK-32900是美国SpaceX星链星座的一员,于2025年2月23日发射。星链计划旨在构建全球卫星互联网星座,为全球提供高速宽带网络服务,尤其覆盖偏远地区。该卫星延续星链技术设计,参与低轨卫星通信组网,助力SpaceX持续拓展星座规模,推动全球互联覆盖能力提升。

基本信息
目录编号:
63093
目录名称:
STARLINK-32900
国际标识:
2025-037S
轨道中心:
EARTH
卫星名称:
星链-32900
卫星全名:
星链-32900 (STARLINK-32900)
卫星状态:
在轨 (已飞行476 天)
发射日期:
2025-02-23 UTC
国别 :
美国 (US)
星等 :
--
轨道信息
数据来源 国际轨道数据 AOE轨道数据
星历时间 2026-06-13T21:27:58+0800
18小时前
查看轨道信息
2026-06-12T04:00:00+0800
2天前
查看轨道信息
半长轴 6949.994km 6950.115km
偏心率 0.0003887 0.0003638
轨道倾角 70.001° 70.000°
近地点辐角 260.279° 263.339°
升交点赤经 112.689° 117.044°
平近点角 99.793° 139.720°
近地点 569.155km 569.449km
远地点 574.559km 574.507km
周期 96.103分钟 96.105分钟
每日圈数 14.983945 14.983555
详细信息
固有亮度:
5
最大亮度:
2.5
卫星平台:
Starlink V1.0
覆盖范围:
全球
运营商:
太空探索技术公司
运营商所在国:
美国
制造商(研发单位):
太空探索技术公司
制造商所在国:
美国
使用方式:
暂无
卫星简介
Starlink 计划是 SpaceX 推出的全球卫星互联网项目,通过发射低轨道卫星,为全球尤其是偏远地区提供高速、低延迟的互联网服务。自 2019 年起,Starlink 已部署数千颗卫星,旨在缩小全球数字鸿沟,推动互联网普及。该项目还为军事、航空等行业提供通信支持,带来广泛经济效益。
2D轨道图
3D轨道图
轨道高度分析图
轨道倾角分析图
轨道综合分析图
查看轨道综合分析图